EN

Hourly Weather Tasgaon

Today, 27 November, Friday

Time Temperature Precipitation Wind Pressure Humidity
00:00 +22°C° 0 mm 3 mps 709 mmHg 70%
01:00 +22°C° 0 mm 3 mps 709 mmHg 72%
02:00 +21°C° 0 mm 4 mps 708 mmHg 75%
03:00 +21°C° 0 mm 4 mps 708 mmHg 76%
04:00 +21°C° 0 mm 3 mps 709 mmHg 77%
05:00 +21°C° 0 mm 3 mps 709 mmHg 79%
06:00 +21°C° 0 mm 4 mps 709 mmHg 76%
07:00 +22°C° 0 mm 6 mps 710 mmHg 73%
08:00 +23°C° 0 mm 7 mps 711 mmHg 70%
09:00 +24°C° 0 mm 7 mps 711 mmHg 64%
10:00 +26°C° 0 mm 8 mps 711 mmHg 58%
11:00 +28°C° 0 mm 8 mps 711 mmHg 53%
12:00 +28°C° 0 mm 8 mps 710 mmHg 51%
13:00 +29°C° 0 mm 8 mps 709 mmHg 49%
14:00 +31°C° 0 mm 8 mps 709 mmHg 47%
15:00 +28°C° 0 mm 8 mps 709 mmHg 52%
16:00 +27°C° 0 mm 8 mps 709 mmHg 57%
17:00 +26°C° 0 mm 8 mps 709 mmHg 62%
18:00 +24°C° 0 mm 7 mps 709 mmHg 66%
19:00 +23°C° 0 mm 6 mps 710 mmHg 70%
20:00 +22°C° 0 mm 5 mps 711 mmHg 74%
21:00 +21°C° 0 mm 6 mps 711 mmHg 73%
22:00 +21°C° 0 mm 6 mps 711 mmHg 72%
23:00 +20°C° 0 mm 7 mps 711 mmHg 71%

Tomorrow, 28 November, Saturday

Time Temperature Precipitation Wind Pressure Humidity
00:00 +20°C° 0 mm 7 mps 710 mmHg 73%
01:00 +20°C° 0 mm 7 mps 710 mmHg 75%
02:00 +20°C° 0 mm 6 mps 709 mmHg 77%
03:00 +19°C° 0 mm 6 mps 709 mmHg 78%
04:00 +19°C° 0 mm 6 mps 709 mmHg 79%
05:00 +19°C° 0 mm 6 mps 709 mmHg 80%
06:00 +20°C° 0 mm 6 mps 710 mmHg 76%
07:00 +21°C° 0 mm 7 mps 711 mmHg 73%
08:00 +22°C° 0 mm 8 mps 711 mmHg 70%
09:00 +23°C° 0 mm 8 mps 711 mmHg 66%
10:00 +24°C° 0 mm 8 mps 711 mmHg 62%
11:00 +26°C° 0 mm 8 mps 711 mmHg 59%
12:00 +27°C° 0 mm 8 mps 710 mmHg 57%
13:00 +27°C° 0 mm 8 mps 710 mmHg 56%
14:00 +28°C° 0 mm 8 mps 709 mmHg 54%
15:00 +27°C° 0 mm 8 mps 709 mmHg 58%
16:00 +26°C° 0 mm 8 mps 709 mmHg 63%
17:00 +24°C° 0 mm 8 mps 709 mmHg 67%
18:00 +24°C° 0 mm 7 mps 709 mmHg 69%
19:00 +23°C° 0 mm 5 mps 710 mmHg 71%
20:00 +23°C° 0 mm 4 mps 710 mmHg 73%
21:00 +23°C° 0.1 mm 4 mps 710 mmHg 75%
22:00 +22°C° 0.1 mm 4 mps 710 mmHg 76%
23:00 +22°C° 0.1 mm 3 mps 710 mmHg 78%

Day after tomorrow, 29 November, Sunday

Time Temperature Precipitation Wind Pressure Humidity
00:00 +22°C° 0.1 mm 4 mps 710 mmHg 79%
01:00 +22°C° 0.1 mm 5 mps 710 mmHg 80%
02:00 +22°C° 0.1 mm 6 mps 709 mmHg 81%
03:00 +21°C° 0 mm 6 mps 709 mmHg 82%
04:00 +21°C° 0 mm 5 mps 709 mmHg 83%
05:00 +20°C° 0 mm 5 mps 709 mmHg 84%
06:00 +21°C° 0 mm 5 mps 710 mmHg 82%
07:00 +22°C° 0 mm 6 mps 711 mmHg 80%
08:00 +22°C° 0 mm 6 mps 711 mmHg 77%
09:00 +24°C° 0 mm 6 mps 711 mmHg 71%
10:00 +26°C° 0 mm 6 mps 711 mmHg 64%
11:00 +28°C° 0 mm 6 mps 711 mmHg 58%
12:00 +29°C° 0 mm 6 mps 710 mmHg 54%
13:00 +30°C° 0 mm 6 mps 710 mmHg 49%
14:00 +32°C° 0 mm 5 mps 709 mmHg 45%
15:00 +30°C° 0 mm 5 mps 709 mmHg 48%
16:00 +30°C° 0 mm 5 mps 709 mmHg 51%
17:00 +29°C° 0 mm 5 mps 709 mmHg 53%
18:00 +28°C° 0 mm 4 mps 709 mmHg 58%
19:00 +26°C° 0 mm 4 mps 710 mmHg 63%
20:00 +25°C° 0 mm 3 mps 710 mmHg 67%
21:00 +25°C° 0 mm 3 mps 710 mmHg 67%
22:00 +24°C° 0 mm 3 mps 710 mmHg 66%
23:00 +24°C° 0 mm 3 mps 710 mmHg 65%

30 November, Monday

Time Temperature Precipitation Wind Pressure Humidity
00:00 +22°C° 0 mm 3 mps 710 mmHg 68%
01:00 +22°C° 0 mm 3 mps 709 mmHg 70%
02:00 +21°C° 0 mm 2 mps 709 mmHg 73%
03:00 +21°C° 0 mm 2 mps 709 mmHg 74%
04:00 +21°C° 0 mm 2 mps 709 mmHg 76%
05:00 +20°C° 0 mm 2 mps 709 mmHg 78%
06:00 +21°C° 0 mm 3 mps 710 mmHg 74%
07:00 +22°C° 0 mm 4 mps 710 mmHg 71%
08:00 +23°C° 0 mm 4 mps 711 mmHg 67%
09:00 +26°C° 0 mm 5 mps 711 mmHg 58%
10:00 +28°C° 0 mm 5 mps 711 mmHg 49%
11:00 +30°C° 0 mm 6 mps 711 mmHg 40%
12:00 +30°C° 0 mm 6 mps 710 mmHg 39%
13:00 +32°C° 0 mm 5 mps 710 mmHg 37%
14:00 +33°C° 0 mm 5 mps 709 mmHg 35%
15:00 +32°C° 0 mm 5 mps 709 mmHg 38%
16:00 +30°C° 0 mm 4 mps 709 mmHg 41%
17:00 +30°C° 0 mm 4 mps 709 mmHg 44%
18:00 +29°C° 0 mm 4 mps 710 mmHg 46%
19:00 +28°C° 0 mm 4 mps 710 mmHg 49%
20:00 +27°C° 0 mm 3 mps 710 mmHg 52%
21:00 +26°C° 0 mm 3 mps 710 mmHg 53%
22:00 +26°C° 0 mm 3 mps 710 mmHg 55%
23:00 +25°C° 0 mm 3 mps 710 mmHg 56%

1 December, Tuesday

Time Temperature Precipitation Wind Pressure Humidity
00:00 +24°C° 0 mm 3 mps 710 mmHg 59%
01:00 +24°C° 0 mm 3 mps 709 mmHg 62%
02:00 +23°C° 0 mm 2 mps 709 mmHg 65%
03:00 +21°C° 0 mm 2 mps 709 mmHg 67%
04:00 +21°C° 0 mm 2 mps 709 mmHg 70%
05:00 +21°C° 0 mm 2 mps 709 mmHg 72%
06:00 +23°C° 0 mm 2 mps 710 mmHg 69%
07:00 +24°C° 0 mm 2 mps 710 mmHg 66%
08:00 +24°C° 0 mm 3 mps 711 mmHg 62%
09:00 +26°C° 0 mm 4 mps 711 mmHg 57%
10:00 +28°C° 0 mm 4 mps 711 mmHg 52%
11:00 +30°C° 0 mm 5 mps 711 mmHg 46%
12:00 +30°C° 0 mm 5 mps 710 mmHg 43%
13:00 +32°C° 0 mm 5 mps 709 mmHg 41%
14:00 +33°C° 0 mm 5 mps 709 mmHg 38%
15:00 +32°C° 0 mm 5 mps 709 mmHg 40%
16:00 +30°C° 0 mm 4 mps 709 mmHg 42%
17:00 +29°C° 0 mm 4 mps 708 mmHg 45%
18:00 +28°C° 0 mm 4 mps 709 mmHg 47%
19:00 +27°C° 0 mm 3 mps 709 mmHg 49%
20:00 +26°C° 0 mm 3 mps 710 mmHg 50%
21:00 +26°C° 0 mm 4 mps 710 mmHg 52%
22:00 +25°C° 0 mm 4 mps 710 mmHg 53%
23:00 +25°C° 0 mm 4 mps 710 mmHg 55%

2 December, Wednesday

Time Temperature Precipitation Wind Pressure Humidity
00:00 +23°C° 0 mm 4 mps 709 mmHg 56%
01:00 +22°C° 0 mm 4 mps 709 mmHg 58%
02:00 +22°C° 0 mm 4 mps 709 mmHg 60%
03:00 +21°C° 0 mm 3 mps 709 mmHg 64%
04:00 +21°C° 0 mm 3 mps 709 mmHg 69%
05:00 +20°C° 0 mm 2 mps 709 mmHg 73%
06:00 +21°C° 0 mm 2 mps 709 mmHg 70%
07:00 +22°C° 0 mm 3 mps 710 mmHg 68%
08:00 +24°C° 0 mm 3 mps 711 mmHg 65%
09:00 +26°C° 0 mm 4 mps 710 mmHg 57%
10:00 +27°C° 0 mm 4 mps 710 mmHg 48%
11:00 +29°C° 0 mm 5 mps 710 mmHg 39%
12:00 +30°C° 0 mm 5 mps 710 mmHg 36%
13:00 +32°C° 0 mm 5 mps 709 mmHg 33%
14:00 +33°C° 0 mm 5 mps 708 mmHg 30%
15:00 +32°C° 0 mm 5 mps 708 mmHg 31%
16:00 +30°C° 0 mm 4 mps 708 mmHg 32%
17:00 +29°C° 0 mm 4 mps 708 mmHg 33%
18:00 +28°C° 0 mm 4 mps 708 mmHg 35%
19:00 +27°C° 0 mm 3 mps 708 mmHg 36%
20:00 +26°C° 0 mm 3 mps 709 mmHg 38%
21:00 +25°C° 0 mm 3 mps 709 mmHg 40%
22:00 +24°C° 0 mm 3 mps 709 mmHg 43%
23:00 +24°C° 0 mm 3 mps 709 mmHg 45%
Show more